K9APR Weather Reports


Display with metric or nautical units.
time (UTC)temp
F
wind
direction
speed
MPH
gust
MPH
rain 1hr
in
rain 24hr
in
rain mn
in
humidity
%
barometer
mb
20260904093921 74 171 0.0 0.0 0.00 0.00 0.00 90 1013.8
20260904093119 73 171 0.0 0.0 0.00 0.00 0.00 90 1013.9
20260904093022 73 171 0.0 0.0 0.00 0.00 0.00 90 1013.9
20260904092504 73 171 0.0 0.0 0.00 0.00 0.00 90 1013.8
20260904092246 73 171 0.0 0.0 0.00 0.00 0.00 90 1013.8
20260904092153 73 171 0.0 0.0 0.00 0.00 0.00 90 1013.8
20260904092122 73 171 0.0 0.0 0.00 0.00 0.00 90 1013.8
20260904091221 74 171 0.0 0.0 0.00 0.00 0.00 91 1013.9
20260904090509 74 171 0.0 0.0 0.00 0.00 0.00 91 1013.9
20260904090352 74 171 0.0 0.0 0.00 0.00 0.00 91 1013.9
20260904090321 74 171 0.0 0.0 0.00 0.00 0.00 91 1013.9
20260904085422 73 171 0.0 0.0 0.00 0.00 0.00 91 1013.8
20260904084524 73 171 0.0 0.0 0.00 0.00 0.00 91 1013.8
20260904083623 73 337 0.0 0.0 0.00 0.00 0.00 91 1013.8
20260904082722 73 337 0.0 0.0 0.00 0.00 0.00 91 1013.9
20260904081822 72 337 0.0 0.0 0.00 0.00 0.00 91 1013.8
20260904080923 72 337 0.0 0.0 0.00 0.00 0.00 91 1014.0
20260904080058 72 337 0.0 0.0 0.00 0.00 0.00 91 1014.0
20260904080022 72 337 0.0 0.0 0.00 0.00 0.00 91 1014.0
20260904075122 72 337 0.0 0.0 0.00 0.00 0.00 91 1014.1
20260904074255 72 337 0.0 0.0 0.00 0.00 0.00 91 1014.1
20260904074222 72 337 0.0 0.0 0.00 0.00 0.00 91 1014.1
20260904073322 72 337 0.0 0.0 0.00 0.00 0.00 90 1014.2
20260904072453 72 337 0.0 0.0 0.00 0.00 0.00 90 1014.3
20260904072422 72 337 0.0 0.0 0.00 0.00 0.00 90 1014.3
20260904071558 72 337 0.0 0.0 0.00 0.00 0.00 90 1014.5
20260904071523 72 337 0.0 0.0 0.00 0.00 0.00 90 1014.5
20260904070622 72 337 0.0 0.0 0.00 0.00 0.00 90 1014.6
20260904065723 72 337 0.0 0.0 0.00 0.00 0.00 90 1014.7
20260904064822 73 337 0.0 0.0 0.00 0.00 0.00 90 1014.6
20260904063922 73 337 0.0 0.0 0.00 0.00 0.00 90 1014.7
20260904063021 73 337 0.0 0.0 0.00 0.00 0.00 89 1014.8
20260904062122 73 337 0.0 0.0 0.00 0.00 0.00 89 1014.7
20260904061257 73 337 0.0 0.0 0.00 0.00 0.00 89 1014.8
20260904061221 73 337 0.0 0.0 0.00 0.00 0.00 89 1014.8
20260904060522 74 337 0.0 0.0 0.00 0.00 0.00 89 1014.8
20260904060405 74 337 0.0 0.0 0.00 0.00 0.00 90 1014.9
20260904060321 74 337 0.0 0.0 0.00 0.00 0.00 89 1014.8
20260904060308 74 337 0.0 0.0 0.00 0.00 0.00 90 1014.9
20260904055425 74 337 0.0 0.0 0.00 0.00 0.00 90 1014.9
20260904054522 74 337 0.0 0.0 0.00 0.00 0.00 89 1014.9
20260904053621 74 337 0.0 0.0 0.00 0.00 0.00 89 1015.0
20260904052723 74 337 0.0 0.0 0.00 0.00 0.00 89 1015.0
20260904051821 74 337 0.0 0.0 0.00 0.00 0.00 89 1014.9
20260904050921 74 337 0.0 0.0 0.00 0.00 0.00 89 1014.9
20260904050100 74 337 0.0 0.0 0.00 0.00 0.00 88 1014.9
20260904050022 74 337 0.0 0.0 0.00 0.00 0.00 88 1014.9
20260904045123 74 337 0.0 0.0 0.00 0.00 0.00 88 1014.8
20260904044222 75 337 0.0 0.0 0.00 0.00 0.00 88 1014.8
20260904043322 75 337 0.0 0.0 0.00 0.00 0.00 88 1014.7
20260904042422 74 337 0.0 0.0 0.00 0.00 0.00 88 1014.6
20260904041522 74 337 0.0 0.0 0.00 0.00 0.00 88 1014.6
20260904040622 74 337 0.0 0.0 0.00 0.00 0.00 88 1014.6
20260904035722 75 337 0.0 0.0 0.00 0.00 0.00 88 1014.5
20260904034821 75 337 0.0 0.0 0.00 0.00 0.00 88 1014.6
20260904033921 75 337 0.0 0.0 0.00 0.00 0.00 87 1014.6
20260904033022 76 337 0.0 0.0 0.00 0.00 0.00 87 1014.6
20260904032122 77 337 0.0 0.0 0.00 0.00 0.00 86 1014.6
20260904031222 77 337 0.0 0.0 0.00 0.00 0.00 86 1014.8
20260904030322 78 337 0.0 0.0 0.00 0.00 0.00 86 1014.7
20260904025423 78 337 0.0 0.0 0.00 0.00 0.00 86 1014.9
20260904024522 78 337 0.0 0.0 0.00 0.00 0.00 85 1014.8
20260904023624 79 337 0.0 0.0 0.00 0.00 0.00 85 1014.9
20260904022721 79 337 0.0 0.0 0.00 0.00 0.00 84 1014.9
20260904021821 80 337 0.0 0.0 0.00 0.00 0.00 84 1014.9
20260904020921 81 125 0.0 0.0 0.00 0.00 0.00 83 1014.9
20260904020022 81 125 0.0 0.0 0.00 0.00 0.00 80 1014.7
20260904015122 82 125 0.0 0.0 0.00 0.00 0.00 79 1014.6
20260904014222 82 132 0.0 2.0 0.00 0.00 0.00 79 1014.6
20260904013322 82 137 0.0 0.0 0.00 0.00 0.00 79 1014.3
20260904012422 82 137 0.0 0.0 0.00 0.00 0.00 79 1014.1
20260904011522 82 138 0.0 1.0 0.00 0.00 0.00 79 1014.1
20260904010625 82 138 0.0 0.0 0.00 0.00 0.00 78 1014.1
20260904005722 82 117 0.0 0.0 0.00 0.00 0.00 79 1013.9
20260904004821 83 119 0.0 1.0 0.00 0.00 0.00 79 1014.0
20260904003921 83 143 0.0 0.0 0.00 0.00 0.00 78 1013.9
20260904003022 84 143 0.0 0.0 0.00 0.00 0.00 77 1013.9
20260904002123 84 143 0.0 0.0 0.00 0.00 0.00 76 1013.9
20260904001223 84 143 0.0 0.0 0.00 0.00 0.00 76 1014.0
20260904000322 85 143 0.0 0.0 0.00 0.00 0.00 74 1014.0
20260903235422 85 143 0.0 0.0 0.00 0.00 0.00 74 1014.0
20260903234522 85 143 0.0 0.0 0.00 0.00 0.00 73 1014.0
20260903232722 86 144 0.0 0.0 0.00 0.00 0.00 71 1013.7
20260903231822 87 151 0.0 0.0 0.00 0.00 0.00 70 1013.5
20260903230922 87 150 0.0 0.0 0.00 0.00 0.00 69 1013.4
20260903230022 88 214 0.0 0.0 0.00 0.00 0.00 67 1013.5
20260903225122 88 215 0.0 1.0 0.00 0.00 0.00 68 1013.4
20260903224505 89 155 0.0 0.0 0.00 0.00 0.00 68 1013.5
20260903223603 89 146 0.0 1.0 0.00 0.00 0.00 67 1013.6
20260903222703 90 301 0.0 0.0 0.00 0.00 0.00 66 1013.4
20260903221803 90 302 0.0 1.0 0.00 0.00 0.00 66 1013.5
20260903220904 91 326 0.0 1.0 0.00 0.00 0.00 63 1013.3
20260903220004 92 303 1.0 3.0 0.00 0.00 0.00 63 1013.3
20260903215104 93 130 0.0 0.0 0.00 0.00 0.00 61 1013.2
20260903214203 93 212 0.0 2.0 0.00 0.00 0.00 64 1013.2
20260903213304 92 303 0.0 1.0 0.00 0.00 0.00 62 1013.2
20260903212404 92 250 1.0 2.0 0.00 0.00 0.00 62 1013.1
20260903211558 93 296 0.0 2.0 0.00 0.00 0.00 62 1013.1
20260903210603 93 219 0.0 2.0 0.00 0.00 0.00 63 1013.2
20260903205704 93 308 1.0 1.0 0.00 0.00 0.00 61 1013.2
20260903204804 93 23 0.0 1.0 0.00 0.00 0.00 62 1013.3
20260903203904 93 320 1.0 1.0 0.00 0.00 0.00 61 1013.3
20260903203004 93 172 1.0 5.0 0.00 0.00 0.00 60 1013.4
20260903202837 93 203 0.0 1.0 0.00 0.00 0.00 61 1013.4
20260903201937 93 304 1.0 3.0 0.00 0.00 0.00 60 1013.5
20260903201038 92 277 1.0 2.0 0.00 0.00 0.00 62 1013.6
20260903200137 93 303 2.0 3.0 0.00 0.00 0.00 61 1013.8
20260903195239 93 119 0.0 2.0 0.00 0.00 0.00 60 1014.3
20260903194338 92 277 1.0 3.0 0.00 0.00 0.00 61 1014.4
20260903192538 92 136 1.0 3.0 0.00 0.00 0.00 60 1014.5
20260903191638 93 307 1.0 3.0 0.00 0.00 0.00 60 1014.7
20260903190738 94 298 1.0 3.0 0.00 0.00 0.00 60 1014.8
20260903185838 93 215 1.0 2.0 0.00 0.00 0.00 60 1014.8
20260903184938 93 300 1.0 1.0 0.00 0.00 0.00 61 1014.8
20260903184037 93 103 0.0 3.0 0.00 0.00 0.00 62 1014.8
20260903183137 92 307 0.0 2.0 0.00 0.00 0.00 63 1014.9
20260903182238 92 305 1.0 1.0 0.00 0.00 0.00 63 1015.0
20260903181338 92 281 1.0 2.0 0.00 0.00 0.00 64 1015.2
20260903180437 92 307 2.0 3.0 0.00 0.00 0.00 62 1015.2
20260903175539 92 304 1.0 5.0 0.00 0.00 0.00 64 1015.2
20260903174637 92 295 0.0 1.0 0.00 0.00 0.00 63 1015.4
20260903173737 92 309 2.0 3.0 0.00 0.00 0.00 65 1015.4
20260903172840 92 198 1.0 6.0 0.00 0.00 0.00 66 1015.4
20260903171937 92 348 0.0 1.0 0.00 0.00 0.00 67 1015.5
20260903171037 91 300 1.0 2.0 0.00 0.00 0.00 66 1015.6
20260903170137 90 176 0.0 2.0 0.00 0.00 0.00 69 1015.6
20260903165237 90 305 2.0 7.0 0.00 0.00 0.00 67 1015.7
20260903164337 90 317 0.0 2.0 0.00 0.00 0.00 69 1015.8
20260903163438 90 306 1.0 3.0 0.00 0.00 0.00 70 1015.9
20260903162538 89 302 1.0 2.0 0.00 0.00 0.00 70 1015.9
20260903160738 89 185 1.0 2.0 0.00 0.00 0.00 72 1016.2
20260903155836 88 316 1.0 3.0 0.00 0.00 0.00 72 1016.2
20260903154938 88 307 2.0 3.0 0.00 0.00 0.00 73 1016.1
20260903154037 89 148 0.0 2.0 0.00 0.00 0.00 73 1016.1
20260903153137 88 195 1.0 2.0 0.00 0.00 0.00 73 1016.1
20260903152237 87 176 0.0 2.0 0.00 0.00 0.00 75 1016.1
20260903151338 86 236 0.0 1.0 0.00 0.00 0.00 77 1016.0
20260903150437 85 305 1.0 3.0 0.00 0.00 0.00 77 1016.1
20260903145538 84 295 0.0 3.0 0.00 0.00 0.00 79 1016.1
20260903144638 84 156 0.0 2.0 0.00 0.00 0.00 80 1016.1
20260903143737 83 312 0.0 1.0 0.00 0.00 0.00 80 1016.2
20260903142958 82 310 1.0 3.0 0.00 0.00 0.00 82 1016.1
20260903142915 82 310 1.0 3.0 0.00 0.00 0.00 82 1016.1
20260903142837 82 310 1.0 3.0 0.00 0.00 0.00 82 1016.1
20260903141937 81 232 1.0 3.0 0.00 0.00 0.00 83 1016.2
20260903141038 81 141 0.0 1.0 0.00 0.00 0.00 84 1016.3
20260903140137 80 289 0.0 1.0 0.00 0.00 0.00 84 1016.4
20260903135242 79 304 0.0 0.0 0.00 0.00 0.00 86 1016.6
20260903134457 78 309 0.0 0.0 0.00 0.00 0.00 86 1016.7
20260903134425 78 309 0.0 0.0 0.00 0.00 0.00 86 1016.7
20260903134338 78 309 0.0 0.0 0.00 0.00 0.00 86 1016.7
20260903133437 78 219 0.0 1.0 0.00 0.00 0.00 86 1016.7
20260903132921 77 207 0.0 0.0 0.00 0.00 0.00 87 1016.7
20260903132540 77 207 0.0 0.0 0.00 0.00 0.00 87 1016.7
20260903132008 76 165 0.0 0.0 0.00 0.00 0.00 87 1016.9
20260903131711 76 165 0.0 0.0 0.00 0.00 0.00 87 1016.9
20260903131639 76 165 0.0 0.0 0.00 0.00 0.00 87 1016.9
20260903131004 76 165 0.0 0.0 0.00 0.00 0.00 88 1016.9
20260903130841 76 165 0.0 0.0 0.00 0.00 0.00 88 1016.9
20260903130739 76 165 0.0 0.0 0.00 0.00 0.00 88 1016.9
20260903130010 75 185 0.0 0.0 0.00 0.00 0.00 88 1016.9
20260903125931 75 185 0.0 0.0 0.00 0.00 0.00 88 1016.9
20260903125837 75 185 0.0 0.0 0.00 0.00 0.00 88 1016.9
20260903125350 75 185 0.0 0.0 0.00 0.00 0.00 88 1017.0
20260903125147 75 185 0.0 0.0 0.00 0.00 0.00 88 1017.0
20260903125048 75 185 0.0 0.0 0.00 0.00 0.00 88 1017.0
20260903125012 75 185 0.0 0.0 0.00 0.00 0.00 88 1017.0
20260903124941 75 185 0.0 0.0 0.00 0.00 0.00 88 1017.0
20260903124111 74 185 0.0 0.0 0.00 0.00 0.00 89 1016.8
20260903124037 74 185 0.0 0.0 0.00 0.00 0.00 89 1016.8
20260903123138 74 185 0.0 0.0 0.00 0.00 0.00 88 1016.8
20260903122353 73 185 0.0 0.0 0.00 0.00 0.00 88 1016.8
20260903122311 73 185 0.0 0.0 0.00 0.00 0.00 88 1016.8
20260903122240 73 185 0.0 0.0 0.00 0.00 0.00 88 1016.8
20260903121339 74 185 0.0 0.0 0.00 0.00 0.00 88 1016.9
20260903120437 74 185 0.0 0.0 0.00 0.00 0.00 88 1016.8
20260903115733 73 185 0.0 0.0 0.00 0.00 0.00 88 1016.7
20260903115650 73 185 0.0 0.0 0.00 0.00 0.00 88 1016.7
20260903115537 73 185 0.0 0.0 0.00 0.00 0.00 88 1016.7
20260903114711 74 185 0.0 0.0 0.00 0.00 0.00 88 1016.7
20260903114640 74 185 0.0 0.0 0.00 0.00 0.00 88 1016.7
20260903112957 73 187 0.0 0.0 0.00 0.00 0.00 88 1016.5
20260903112909 73 187 0.0 0.0 0.00 0.00 0.00 88 1016.5
20260903112837 73 187 0.0 0.0 0.00 0.00 0.00 88 1016.5
20260903112020 73 187 0.0 0.0 0.00 0.00 0.00 87 1016.4
20260903111939 73 187 0.0 0.0 0.00 0.00 0.00 87 1016.4
20260903111038 74 187 0.0 0.0 0.00 0.00 0.00 87 1016.4
20260903110136 74 187 0.0 0.0 0.00 0.00 0.00 86 1016.1
20260903105238 74 187 0.0 0.0 0.00 0.00 0.00 86 1016.0
20260903104408 74 187 0.0 0.0 0.00 0.00 0.00 86 1016.0
20260903104336 74 187 0.0 0.0 0.00 0.00 0.00 86 1016.0
20260903103516 75 187 0.0 0.0 0.00 0.00 0.00 86 1015.9
20260903103440 75 187 0.0 0.0 0.00 0.00 0.00 86 1015.9
20260903102621 75 169 0.0 0.0 0.00 0.00 0.00 86 1015.9
20260903102538 75 169 0.0 0.0 0.00 0.00 0.00 86 1015.9
20260903101638 75 167 0.0 0.0 0.00 0.00 0.00 86 1015.9
20260903100046 75 205 0.0 0.0 0.00 0.00 0.00 86 1015.7
20260903100000 75 205 0.0 0.0 0.00 0.00 0.00 86 1015.7
20260903095924 75 205 0.0 0.0 0.00 0.00 0.00 86 1015.7
20260903095838 75 205 0.0 0.0 0.00 0.00 0.00 86 1015.7
20260903095015 75 205 0.0 0.0 0.00 0.00 0.00 86 1015.6
20260903094943 75 205 0.0 0.0 0.00 0.00 0.00 86 1015.6
20260903094118 75 167 0.0 0.0 0.00 0.00 0.00 86 1015.8
20260903094038 75 167 0.0 0.0 0.00 0.00 0.00 86 1015.8